iso_date,epoch_date,Year,Hour,Min,DOY,POS_DOY,Lat,Lon,BP,Ts,Ta,has_bp,has_ts,has_ta,BuoyID,Buoy_Type,Buoy_Owner,Logistics,Hemisphere
2017-09-28T00:00:00Z,1506556800,2017,0,0,271.0,271.0,77.8408,6.6062,-999.00,5.86,-999.0,no,yes,no,300234063843680,SVPVHI,AOML,DANA,North
2017-09-28T03:00:00Z,1506567600,2017,3,0,271.125,271.125,77.8682,6.6792,-999.00,5.84,-999.0,no,yes,no,300234063843680,SVPVHI,AOML,DANA,North
2017-09-28T06:00:00Z,1506578400,2017,6,0,271.25,271.25,77.8826,6.8166,-999.00,5.87,-999.0,no,yes,no,300234063843680,SVPVHI,AOML,DANA,North
2017-09-28T09:00:00Z,1506589200,2017,9,0,271.375,271.375,77.891,6.9236,-999.00,5.84,-999.0,no,yes,no,300234063843680,SVPVHI,AOML,DANA,North
2017-09-28T12:00:00Z,1506600000,2017,12,0,271.5,271.5,77.8922,7.0502,-999.00,5.99,-999.0,no,yes,no,300234063843680,SVPVHI,AOML,DANA,North
2017-09-28T15:00:00Z,1506610800,2017,15,0,271.625,271.625,77.8926,7.168,-999.00,6.15,-999.0,no,yes,no,300234063843680,SVPVHI,AOML,DANA,North
2017-09-28T18:00:00Z,1506621600,2017,18,0,271.75,271.75,77.9066,7.258,-999.00,6.08,-999.0,no,yes,no,300234063843680,SVPVHI,AOML,DANA,North
2017-09-28T21:00:00Z,1506632400,2017,21,0,271.875,271.875,77.9146,7.4566,-999.00,5.94,-999.0,no,yes,no,300234063843680,SVPVHI,AOML,DANA,North
2017-09-29T00:00:00Z,1506643200,2017,0,0,272.0,272.0,77.9078,7.6634,-999.00,5.89,-999.0,no,yes,no,300234063843680,SVPVHI,AOML,DANA,North
2017-09-29T03:00:00Z,1506654000,2017,3,0,272.125,272.125,77.909,7.7688,-999.00,5.89,-999.0,no,yes,no,300234063843680,SVPVHI,AOML,DANA,North
2017-09-29T06:00:00Z,1506664800,2017,6,0,272.25,272.25,77.9172,7.896,-999.00,5.93,-999.0,no,yes,no,300234063843680,SVPVHI,AOML,DANA,North
2017-09-29T09:00:00Z,1506675600,2017,9,0,272.375,272.375,77.9284,7.9746,-999.00,6.02,-999.0,no,yes,no,300234063843680,SVPVHI,AOML,DANA,North
2017-09-29T12:00:00Z,1506686400,2017,12,0,272.5,272.5,77.9448,7.9916,-999.00,6.0,-999.0,no,yes,no,300234063843680,SVPVHI,AOML,DANA,North
2017-09-29T15:00:00Z,1506697200,2017,15,0,272.625,272.625,77.9626,8.0022,-999.00,6.04,-999.0,no,yes,no,300234063843680,SVPVHI,AOML,DANA,North
2017-09-29T18:00:00Z,1506708000,2017,18,0,272.75,272.75,77.988,7.9716,-999.00,5.97,-999.0,no,yes,no,300234063843680,SVPVHI,AOML,DANA,North
2017-09-29T21:00:00Z,1506718800,2017,21,0,272.875,272.875,78.0222,7.927,-999.00,5.97,-999.0,no,yes,no,300234063843680,SVPVHI,AOML,DANA,North
2017-09-30T00:00:00Z,1506729600,2017,0,0,273.0,273.0,78.058,7.9156,-999.00,5.98,-999.0,no,yes,no,300234063843680,SVPVHI,AOML,DANA,North
2017-09-30T03:00:00Z,1506740400,2017,3,0,273.125,273.125,78.0916,7.8858,-999.00,6.05,-999.0,no,yes,no,300234063843680,SVPVHI,AOML,DANA,North
2017-09-30T06:00:00Z,1506751200,2017,6,0,273.25,273.25,78.1292,7.8678,-999.00,6.01,-999.0,no,yes,no,300234063843680,SVPVHI,AOML,DANA,North
2017-09-30T09:00:00Z,1506762000,2017,9,0,273.375,273.375,78.1704,7.8318,-999.00,6.0,-999.0,no,yes,no,300234063843680,SVPVHI,AOML,DANA,North
2017-09-30T12:00:00Z,1506772800,2017,12,0,273.5,273.5,78.2114,7.7632,-999.00,6.0,-999.0,no,yes,no,300234063843680,SVPVHI,AOML,DANA,North
2017-09-30T15:00:00Z,1506783600,2017,15,0,273.625,273.625,78.2528,7.6822,-999.00,5.99,-999.0,no,yes,no,300234063843680,SVPVHI,AOML,DANA,North
2017-09-30T18:00:00Z,1506794400,2017,18,0,273.75,273.75,78.2986,7.5664,-999.00,5.95,-999.0,no,yes,no,300234063843680,SVPVHI,AOML,DANA,North
2017-09-30T21:00:00Z,1506805200,2017,21,0,273.875,273.875,78.3466,7.4412,-999.00,6.03,-999.0,no,yes,no,300234063843680,SVPVHI,AOML,DANA,North
2017-10-01T00:00:00Z,1506816000,2017,0,0,274.0,274.0,78.3886,7.3352,-999.00,5.93,-999.0,no,yes,no,300234063843680,SVPVHI,AOML,DANA,North
2017-10-01T03:00:00Z,1506826800,2017,3,0,274.125,274.125,78.4212,7.222,-999.00,6.04,-999.0,no,yes,no,300234063843680,SVPVHI,AOML,DANA,North
2017-10-01T06:00:00Z,1506837600,2017,6,0,274.25,274.25,78.4554,7.132,-999.00,6.26,-999.0,no,yes,no,300234063843680,SVPVHI,AOML,DANA,North
2017-10-01T09:00:00Z,1506848400,2017,9,0,274.375,274.375,78.4878,7.0738,-999.00,6.16,-999.0,no,yes,no,300234063843680,SVPVHI,AOML,DANA,North
2017-10-01T12:00:00Z,1506859200,2017,12,0,274.5,274.5,78.5178,7.0074,-999.00,6.15,-999.0,no,yes,no,300234063843680,SVPVHI,AOML,DANA,North
2017-10-01T15:00:00Z,1506870000,2017,15,0,274.625,274.625,78.5384,6.9472,-999.00,6.07,-999.0,no,yes,no,300234063843680,SVPVHI,AOML,DANA,North
2017-10-01T18:00:00Z,1506880800,2017,18,0,274.75,274.75,78.5616,6.888,-999.00,6.18,-999.0,no,yes,no,300234063843680,SVPVHI,AOML,DANA,North
2017-10-01T21:00:00Z,1506891600,2017,21,0,274.875,274.875,78.584,6.8358,-999.00,6.26,-999.0,no,yes,no,300234063843680,SVPVHI,AOML,DANA,North
2017-10-02T00:00:00Z,1506902400,2017,0,0,275.0,275.0,78.6042,6.7824,-999.00,5.56,-999.0,no,yes,no,300234063843680,SVPVHI,AOML,DANA,North
2017-10-02T03:00:00Z,1506913200,2017,3,0,275.125,275.125,78.6334,6.7674,-999.00,5.79,-999.0,no,yes,no,300234063843680,SVPVHI,AOML,DANA,North
2017-10-02T06:00:00Z,1506924000,2017,6,0,275.25,275.25,78.6546,6.808,-999.00,6.23,-999.0,no,yes,no,300234063843680,SVPVHI,AOML,DANA,North
2017-10-02T09:00:00Z,1506934800,2017,9,0,275.375,275.375,78.658,6.8704,-999.00,5.15,-999.0,no,yes,no,300234063843680,SVPVHI,AOML,DANA,North
2017-10-02T12:00:00Z,1506945600,2017,12,0,275.5,275.5,78.6734,6.8588,-999.00,4.87,-999.0,no,yes,no,300234063843680,SVPVHI,AOML,DANA,North
2017-10-02T15:00:00Z,1506956400,2017,15,0,275.625,275.625,78.7016,6.8746,-999.00,4.64,-999.0,no,yes,no,300234063843680,SVPVHI,AOML,DANA,North
2017-10-02T18:00:00Z,1506967200,2017,18,0,275.75,275.75,78.724,6.913,-999.00,4.61,-999.0,no,yes,no,300234063843680,SVPVHI,AOML,DANA,North
2017-10-02T21:00:00Z,1506978000,2017,21,0,275.875,275.875,78.7488,6.8888,-999.00,4.68,-999.0,no,yes,no,300234063843680,SVPVHI,AOML,DANA,North
2017-10-03T00:00:00Z,1506988800,2017,0,0,276.0,276.0,78.7962,6.8056,-999.00,4.88,-999.0,no,yes,no,300234063843680,SVPVHI,AOML,DANA,North
2017-10-03T03:00:00Z,1506999600,2017,3,0,276.125,276.125,78.8394,6.7012,-999.00,6.47,-999.0,no,yes,no,300234063843680,SVPVHI,AOML,DANA,North
2017-10-03T06:00:00Z,1507010400,2017,6,0,276.25,276.25,78.8654,6.5974,-999.00,6.49,-999.0,no,yes,no,300234063843680,SVPVHI,AOML,DANA,North
2017-10-03T09:00:00Z,1507021200,2017,9,0,276.375,276.375,78.8862,6.5068,-999.00,6.49,-999.0,no,yes,no,300234063843680,SVPVHI,AOML,DANA,North
2017-10-03T12:00:00Z,1507032000,2017,12,0,276.5,276.5,78.9064,6.3854,-999.00,6.49,-999.0,no,yes,no,300234063843680,SVPVHI,AOML,DANA,North
2017-10-03T15:00:00Z,1507042800,2017,15,0,276.625,276.625,78.9236,6.249,-999.00,6.47,-999.0,no,yes,no,300234063843680,SVPVHI,AOML,DANA,North
2017-10-03T18:00:00Z,1507053600,2017,18,0,276.75,276.75,78.924,6.1006,-999.00,6.48,-999.0,no,yes,no,300234063843680,SVPVHI,AOML,DANA,North
2017-10-03T21:00:00Z,1507064400,2017,21,0,276.875,276.875,78.9184,5.9486,-999.00,6.46,-999.0,no,yes,no,300234063843680,SVPVHI,AOML,DANA,North
2017-10-04T00:00:00Z,1507075200,2017,0,0,277.0,277.0,78.9152,5.7664,-999.00,6.39,-999.0,no,yes,no,300234063843680,SVPVHI,AOML,DANA,North
2017-10-04T03:00:00Z,1507086000,2017,3,0,277.125,277.125,78.915,5.6598,-999.00,6.45,-999.0,no,yes,no,300234063843680,SVPVHI,AOML,DANA,North
2017-10-04T06:00:00Z,1507096800,2017,6,0,277.25,277.25,78.9004,5.5248,-999.00,6.43,-999.0,no,yes,no,300234063843680,SVPVHI,AOML,DANA,North
2017-10-04T09:00:00Z,1507107600,2017,9,0,277.375,277.375,78.8808,5.396,-999.00,6.41,-999.0,no,yes,no,300234063843680,SVPVHI,AOML,DANA,North
2017-10-04T12:00:00Z,1507118400,2017,12,0,277.5,277.5,78.8522,5.2926,-999.00,6.44,-999.0,no,yes,no,300234063843680,SVPVHI,AOML,DANA,North
2017-10-04T15:00:00Z,1507129200,2017,15,0,277.625,277.625,78.8206,5.2076,-999.00,6.42,-999.0,no,yes,no,300234063843680,SVPVHI,AOML,DANA,North
2017-10-04T18:00:00Z,1507140000,2017,18,0,277.75,277.75,78.786,5.1876,-999.00,6.43,-999.0,no,yes,no,300234063843680,SVPVHI,AOML,DANA,North
2017-10-04T21:00:00Z,1507150800,2017,21,0,277.875,277.875,78.7534,5.2414,-999.00,6.37,-999.0,no,yes,no,300234063843680,SVPVHI,AOML,DANA,North
2017-10-05T00:00:00Z,1507161600,2017,0,0,278.0,278.0,78.7464,5.3162,-999.00,6.3,-999.0,no,yes,no,300234063843680,SVPVHI,AOML,DANA,North
2017-10-05T03:00:00Z,1507172400,2017,3,0,278.125,278.125,78.732,5.4036,-999.00,6.29,-999.0,no,yes,no,300234063843680,SVPVHI,AOML,DANA,North
2017-10-05T06:00:00Z,1507183200,2017,6,0,278.25,278.25,78.7312,5.4842,-999.00,6.18,-999.0,no,yes,no,300234063843680,SVPVHI,AOML,DANA,North
2017-10-05T09:00:00Z,1507194000,2017,9,0,278.375,278.375,78.7252,5.6104,-999.00,6.09,-999.0,no,yes,no,300234063843680,SVPVHI,AOML,DANA,North
2017-10-05T12:00:00Z,1507204800,2017,12,0,278.5,278.5,78.7184,5.715,-999.00,6.38,-999.0,no,yes,no,300234063843680,SVPVHI,AOML,DANA,North
2017-10-05T15:00:00Z,1507215600,2017,15,0,278.625,278.625,78.7182,5.7436,-999.00,6.35,-999.0,no,yes,no,300234063843680,SVPVHI,AOML,DANA,North
2017-10-05T18:00:00Z,1507226400,2017,18,0,278.75,278.75,78.7196,5.8204,-999.00,6.4,-999.0,no,yes,no,300234063843680,SVPVHI,AOML,DANA,North
2017-10-05T21:00:00Z,1507237200,2017,21,0,278.875,278.875,78.7084,5.9182,-999.00,5.92,-999.0,no,yes,no,300234063843680,SVPVHI,AOML,DANA,North
2017-10-06T00:00:00Z,1507248000,2017,0,0,279.0,279.0,78.7076,5.941,-999.00,5.65,-999.0,no,yes,no,300234063843680,SVPVHI,AOML,DANA,North
2017-10-06T03:00:00Z,1507258800,2017,3,0,279.125,279.125,78.7158,5.9568,-999.00,5.93,-999.0,no,yes,no,300234063843680,SVPVHI,AOML,DANA,North
2017-10-06T06:00:00Z,1507269600,2017,6,0,279.25,279.25,78.7194,5.9946,-999.00,5.96,-999.0,no,yes,no,300234063843680,SVPVHI,AOML,DANA,North
2017-10-06T09:00:00Z,1507280400,2017,9,0,279.375,279.375,78.7108,6.0392,-999.00,4.51,-999.0,no,yes,no,300234063843680,SVPVHI,AOML,DANA,North
2017-10-06T12:00:00Z,1507291200,2017,12,0,279.5,279.5,78.7148,6.0298,-999.00,5.15,-999.0,no,yes,no,300234063843680,SVPVHI,AOML,DANA,North
2017-10-06T15:00:00Z,1507302000,2017,15,0,279.625,279.625,78.719,6.005,-999.00,5.46,-999.0,no,yes,no,300234063843680,SVPVHI,AOML,DANA,North
2017-10-06T18:00:00Z,1507312800,2017,18,0,279.75,279.75,78.7316,5.9806,-999.00,4.73,-999.0,no,yes,no,300234063843680,SVPVHI,AOML,DANA,North
2017-10-06T21:00:00Z,1507323600,2017,21,0,279.875,279.875,78.738,6.0266,-999.00,4.63,-999.0,no,yes,no,300234063843680,SVPVHI,AOML,DANA,North
2017-10-07T00:00:00Z,1507334400,2017,0,0,280.0,280.0,78.748,6.0894,-999.00,4.37,-999.0,no,yes,no,300234063843680,SVPVHI,AOML,DANA,North
2017-10-07T03:00:00Z,1507345200,2017,3,0,280.125,280.125,78.7712,6.1796,-999.00,4.57,-999.0,no,yes,no,300234063843680,SVPVHI,AOML,DANA,North
2017-10-07T06:00:00Z,1507356000,2017,6,0,280.25,280.25,78.7892,6.2526,-999.00,4.75,-999.0,no,yes,no,300234063843680,SVPVHI,AOML,DANA,North
2017-10-07T09:00:00Z,1507366800,2017,9,0,280.375,280.375,78.8146,6.2948,-999.00,4.94,-999.0,no,yes,no,300234063843680,SVPVHI,AOML,DANA,North
2017-10-07T12:00:00Z,1507377600,2017,12,0,280.5,280.5,78.8516,6.3808,-999.00,5.14,-999.0,no,yes,no,300234063843680,SVPVHI,AOML,DANA,North
2017-10-07T15:00:00Z,1507388400,2017,15,0,280.625,280.625,78.8938,6.504,-999.00,5.97,-999.0,no,yes,no,300234063843680,SVPVHI,AOML,DANA,North
2017-10-07T18:00:00Z,1507399200,2017,18,0,280.75,280.75,78.9352,6.579,-999.00,5.96,-999.0,no,yes,no,300234063843680,SVPVHI,AOML,DANA,North
2017-10-07T21:00:00Z,1507410000,2017,21,0,280.875,280.875,78.9726,6.6684,-999.00,6.2,-999.0,no,yes,no,300234063843680,SVPVHI,AOML,DANA,North
2017-10-08T00:00:00Z,1507420800,2017,0,0,281.0,281.0,79.0092,6.7848,-999.00,5.11,-999.0,no,yes,no,300234063843680,SVPVHI,AOML,DANA,North
2017-10-08T03:00:00Z,1507431600,2017,3,0,281.125,281.125,79.0564,6.911,-999.00,5.42,-999.0,no,yes,no,300234063843680,SVPVHI,AOML,DANA,North
2017-10-08T06:00:00Z,1507442400,2017,6,0,281.25,281.25,79.093,7.0794,-999.00,5.31,-999.0,no,yes,no,300234063843680,SVPVHI,AOML,DANA,North
2017-10-08T09:00:00Z,1507453200,2017,9,0,281.375,281.375,79.1114,7.1568,-999.00,5.02,-999.0,no,yes,no,300234063843680,SVPVHI,AOML,DANA,North
2017-10-08T12:00:00Z,1507464000,2017,12,0,281.5,281.5,79.1336,7.2078,-999.00,4.76,-999.0,no,yes,no,300234063843680,SVPVHI,AOML,DANA,North
2017-10-08T15:00:00Z,1507474800,2017,15,0,281.625,281.625,79.1582,7.3262,-999.00,5.28,-999.0,no,yes,no,300234063843680,SVPVHI,AOML,DANA,North
2017-10-08T18:00:00Z,1507485600,2017,18,0,281.75,281.75,79.179,7.4116,-999.00,5.3,-999.0,no,yes,no,300234063843680,SVPVHI,AOML,DANA,North
2017-10-08T21:00:00Z,1507496400,2017,21,0,281.875,281.875,79.1932,7.4294,-999.00,5.33,-999.0,no,yes,no,300234063843680,SVPVHI,AOML,DANA,North
2017-10-09T00:00:00Z,1507507200,2017,0,0,282.0,282.0,79.221,7.4092,-999.00,5.51,-999.0,no,yes,no,300234063843680,SVPVHI,AOML,DANA,North
2017-10-09T03:00:00Z,1507518000,2017,3,0,282.125,282.125,79.2518,7.4146,-999.00,5.58,-999.0,no,yes,no,300234063843680,SVPVHI,AOML,DANA,North
2017-10-09T06:00:00Z,1507528800,2017,6,0,282.25,282.25,79.2788,7.3592,-999.00,5.63,-999.0,no,yes,no,300234063843680,SVPVHI,AOML,DANA,North
2017-10-09T09:00:00Z,1507539600,2017,9,0,282.375,282.375,79.3086,7.183,-999.00,5.04,-999.0,no,yes,no,300234063843680,SVPVHI,AOML,DANA,North
2017-10-09T12:00:00Z,1507550400,2017,12,0,282.5,282.5,79.3414,7.128,-999.00,5.22,-999.0,no,yes,no,300234063843680,SVPVHI,AOML,DANA,North
2017-10-09T15:00:00Z,1507561200,2017,15,0,282.625,282.625,79.3502,7.1816,-999.00,5.4,-999.0,no,yes,no,300234063843680,SVPVHI,AOML,DANA,North
2017-10-09T18:00:00Z,1507572000,2017,18,0,282.75,282.75,79.3534,7.0864,-999.00,5.44,-999.0,no,yes,no,300234063843680,SVPVHI,AOML,DANA,North
2017-10-09T21:00:00Z,1507582800,2017,21,0,282.875,282.875,79.3806,6.99,-999.00,5.14,-999.0,no,yes,no,300234063843680,SVPVHI,AOML,DANA,North
2017-10-10T00:00:00Z,1507593600,2017,0,0,283.0,283.0,79.4022,7.0664,-999.00,5.21,-999.0,no,yes,no,300234063843680,SVPVHI,AOML,DANA,North
2017-10-10T03:00:00Z,1507604400,2017,3,0,283.125,283.125,79.4198,7.0818,-999.00,5.56,-999.0,no,yes,no,300234063843680,SVPVHI,AOML,DANA,North
2017-10-10T06:00:00Z,1507615200,2017,6,0,283.25,283.25,79.4556,7.0564,-999.00,5.75,-999.0,no,yes,no,300234063843680,SVPVHI,AOML,DANA,North
2017-10-10T09:00:00Z,1507626000,2017,9,0,283.375,283.375,79.499,7.0206,-999.00,6.1,-999.0,no,yes,no,300234063843680,SVPVHI,AOML,DANA,North
2017-10-10T12:00:00Z,1507636800,2017,12,0,283.5,283.5,79.5338,7.0304,-999.00,6.33,-999.0,no,yes,no,300234063843680,SVPVHI,AOML,DANA,North
2017-10-10T15:00:00Z,1507647600,2017,15,0,283.625,283.625,79.5638,7.0412,-999.00,6.44,-999.0,no,yes,no,300234063843680,SVPVHI,AOML,DANA,North
2017-10-10T18:00:00Z,1507658400,2017,18,0,283.75,283.75,79.6012,6.984,-999.00,6.38,-999.0,no,yes,no,300234063843680,SVPVHI,AOML,DANA,North
2017-10-10T21:00:00Z,1507669200,2017,21,0,283.875,283.875,79.6454,6.9334,-999.00,6.49,-999.0,no,yes,no,300234063843680,SVPVHI,AOML,DANA,North
2017-10-11T00:00:00Z,1507680000,2017,0,0,284.0,284.0,79.6844,6.9542,-999.00,6.47,-999.0,no,yes,no,300234063843680,SVPVHI,AOML,DANA,North
2017-10-11T03:00:00Z,1507690800,2017,3,0,284.125,284.125,79.7154,7.0678,-999.00,6.44,-999.0,no,yes,no,300234063843680,SVPVHI,AOML,DANA,North
2017-10-11T06:00:00Z,1507701600,2017,6,0,284.25,284.25,79.7442,7.1562,-999.00,6.48,-999.0,no,yes,no,300234063843680,SVPVHI,AOML,DANA,North
2017-10-11T09:00:00Z,1507712400,2017,9,0,284.375,284.375,79.7788,7.2622,-999.00,6.61,-999.0,no,yes,no,300234063843680,SVPVHI,AOML,DANA,North
2017-10-11T12:00:00Z,1507723200,2017,12,0,284.5,284.5,79.8018,7.4048,-999.00,6.68,-999.0,no,yes,no,300234063843680,SVPVHI,AOML,DANA,North
2017-10-11T15:00:00Z,1507734000,2017,15,0,284.625,284.625,79.8154,7.5328,-999.00,6.7,-999.0,no,yes,no,300234063843680,SVPVHI,AOML,DANA,North
2017-10-11T18:00:00Z,1507744800,2017,18,0,284.75,284.75,79.826,7.579,-999.00,5.85,-999.0,no,yes,no,300234063843680,SVPVHI,AOML,DANA,North
2017-10-11T21:00:00Z,1507755600,2017,21,0,284.875,284.875,79.8464,7.5594,-999.00,5.86,-999.0,no,yes,no,300234063843680,SVPVHI,AOML,DANA,North
2017-10-12T00:00:00Z,1507766400,2017,0,0,285.0,285.0,79.8606,7.5992,-999.00,5.83,-999.0,no,yes,no,300234063843680,SVPVHI,AOML,DANA,North
2017-10-12T03:00:00Z,1507777200,2017,3,0,285.125,285.125,79.8568,7.6732,-999.00,5.84,-999.0,no,yes,no,300234063843680,SVPVHI,AOML,DANA,North
2017-10-12T06:00:00Z,1507788000,2017,6,0,285.25,285.25,79.852,7.6568,-999.00,6.59,-999.0,no,yes,no,300234063843680,SVPVHI,AOML,DANA,North
2017-10-12T09:00:00Z,1507798800,2017,9,0,285.375,285.375,79.8598,7.6158,-999.00,6.55,-999.0,no,yes,no,300234063843680,SVPVHI,AOML,DANA,North
2017-10-12T12:00:00Z,1507809600,2017,12,0,285.5,285.5,79.8658,7.5348,-999.00,6.91,-999.0,no,yes,no,300234063843680,SVPVHI,AOML,DANA,North
2017-10-12T15:00:00Z,1507820400,2017,15,0,285.625,285.625,79.8698,7.4666,-999.00,6.82,-999.0,no,yes,no,300234063843680,SVPVHI,AOML,DANA,North
2017-10-12T18:00:00Z,1507831200,2017,18,0,285.75,285.75,79.8794,7.426,-999.00,6.45,-999.0,no,yes,no,300234063843680,SVPVHI,AOML,DANA,North
2017-10-12T21:00:00Z,1507842000,2017,21,0,285.875,285.875,79.892,7.4392,-999.00,6.29,-999.0,no,yes,no,300234063843680,SVPVHI,AOML,DANA,North
2017-10-13T00:00:00Z,1507852800,2017,0,0,286.0,286.0,79.8946,7.444,-999.00,6.25,-999.0,no,yes,no,300234063843680,SVPVHI,AOML,DANA,North
2017-10-13T03:00:00Z,1507863600,2017,3,0,286.125,286.125,79.8974,7.3914,-999.00,6.29,-999.0,no,yes,no,300234063843680,SVPVHI,AOML,DANA,North
2017-10-13T06:00:00Z,1507874400,2017,6,0,286.25,286.25,79.915,7.3424,-999.00,6.23,-999.0,no,yes,no,300234063843680,SVPVHI,AOML,DANA,North
2017-10-13T09:00:00Z,1507885200,2017,9,0,286.375,286.375,79.9384,7.3278,-999.00,6.09,-999.0,no,yes,no,300234063843680,SVPVHI,AOML,DANA,North
2017-10-13T12:00:00Z,1507896000,2017,12,0,286.5,286.5,79.9548,7.3028,-999.00,6.09,-999.0,no,yes,no,300234063843680,SVPVHI,AOML,DANA,North
2017-10-13T15:00:00Z,1507906800,2017,15,0,286.625,286.625,79.9766,7.3106,-999.00,5.93,-999.0,no,yes,no,300234063843680,SVPVHI,AOML,DANA,North
2017-10-13T18:00:00Z,1507917600,2017,18,0,286.75,286.75,79.985,7.2964,-999.00,5.77,-999.0,no,yes,no,300234063843680,SVPVHI,AOML,DANA,North
2017-10-13T21:00:00Z,1507928400,2017,21,0,286.875,286.875,80.0116,7.2658,-999.00,5.8,-999.0,no,yes,no,300234063843680,SVPVHI,AOML,DANA,North
2017-10-14T00:00:00Z,1507939200,2017,0,0,287.0,287.0,80.0294,7.2094,-999.00,5.96,-999.0,no,yes,no,300234063843680,SVPVHI,AOML,DANA,North
2017-10-14T03:00:00Z,1507950000,2017,3,0,287.125,287.125,80.0408,7.0902,-999.00,6.34,-999.0,no,yes,no,300234063843680,SVPVHI,AOML,DANA,North
2017-10-14T06:00:00Z,1507960800,2017,6,0,287.25,287.25,80.0514,6.9386,-999.00,4.6,-999.0,no,yes,no,300234063843680,SVPVHI,AOML,DANA,North
2017-10-14T09:00:00Z,1507971600,2017,9,0,287.375,287.375,80.0768,6.8372,-999.00,3.33,-999.0,no,yes,no,300234063843680,SVPVHI,AOML,DANA,North
2017-10-14T12:00:00Z,1507982400,2017,12,0,287.5,287.5,80.103,6.7682,-999.00,3.26,-999.0,no,yes,no,300234063843680,SVPVHI,AOML,DANA,North
2017-10-14T15:00:00Z,1507993200,2017,15,0,287.625,287.625,80.1136,6.6968,-999.00,3.26,-999.0,no,yes,no,300234063843680,SVPVHI,AOML,DANA,North
2017-10-14T18:00:00Z,1508004000,2017,18,0,287.75,287.75,80.1182,6.5812,-999.00,2.98,-999.0,no,yes,no,300234063843680,SVPVHI,AOML,DANA,North
2017-10-14T21:00:00Z,1508014800,2017,21,0,287.875,287.875,80.1266,6.4592,-999.00,2.86,-999.0,no,yes,no,300234063843680,SVPVHI,AOML,DANA,North
2017-10-15T00:00:00Z,1508025600,2017,0,0,288.0,288.0,80.1254,6.356,-999.00,2.83,-999.0,no,yes,no,300234063843680,SVPVHI,AOML,DANA,North
2017-10-15T03:00:00Z,1508036400,2017,3,0,288.125,288.125,80.1182,6.1466,-999.00,3.05,-999.0,no,yes,no,300234063843680,SVPVHI,AOML,DANA,North
2017-10-15T06:00:00Z,1508047200,2017,6,0,288.25,288.25,80.1196,5.8912,-999.00,3.13,-999.0,no,yes,no,300234063843680,SVPVHI,AOML,DANA,North
2017-10-15T09:00:00Z,1508058000,2017,9,0,288.375,288.375,80.141,5.7218,-999.00,3.44,-999.0,no,yes,no,300234063843680,SVPVHI,AOML,DANA,North
2017-10-15T12:00:00Z,1508068800,2017,12,0,288.5,288.5,80.1684,5.628,-999.00,3.58,-999.0,no,yes,no,300234063843680,SVPVHI,AOML,DANA,North
2017-10-15T15:00:00Z,1508079600,2017,15,0,288.625,288.625,80.192,5.6124,-999.00,3.92,-999.0,no,yes,no,300234063843680,SVPVHI,AOML,DANA,North
2017-10-15T18:00:00Z,1508090400,2017,18,0,288.75,288.75,80.2028,5.6024,-999.00,3.16,-999.0,no,yes,no,300234063843680,SVPVHI,AOML,DANA,North
2017-10-15T21:00:00Z,1508101200,2017,21,0,288.875,288.875,80.215,5.5634,-999.00,3.19,-999.0,no,yes,no,300234063843680,SVPVHI,AOML,DANA,North
2017-10-16T00:00:00Z,1508112000,2017,0,0,289.0,289.0,80.2384,5.5408,-999.00,3.24,-999.0,no,yes,no,300234063843680,SVPVHI,AOML,DANA,North
2017-10-16T03:00:00Z,1508122800,2017,3,0,289.125,289.125,80.2508,5.4774,-999.00,3.23,-999.0,no,yes,no,300234063843680,SVPVHI,AOML,DANA,North
2017-10-16T06:00:00Z,1508133600,2017,6,0,289.25,289.25,80.2586,5.267,-999.00,3.19,-999.0,no,yes,no,300234063843680,SVPVHI,AOML,DANA,North
2017-10-16T09:00:00Z,1508144400,2017,9,0,289.375,289.375,80.2644,5.233,-999.00,1.71,-999.0,no,yes,no,300234063843680,SVPVHI,AOML,DANA,North
2017-10-16T12:00:00Z,1508155200,2017,12,0,289.5,289.5,80.2816,5.2846,-999.00,1.6,-999.0,no,yes,no,300234063843680,SVPVHI,AOML,DANA,North
2017-10-16T15:00:00Z,1508166000,2017,15,0,289.625,289.625,80.302,5.2722,-999.00,2.57,-999.0,no,yes,no,300234063843680,SVPVHI,AOML,DANA,North
2017-10-16T18:00:00Z,1508176800,2017,18,0,289.75,289.75,80.323,5.2584,-999.00,2.02,-999.0,no,yes,no,300234063843680,SVPVHI,AOML,DANA,North
2017-10-16T21:00:00Z,1508187600,2017,21,0,289.875,289.875,80.3318,5.2684,-999.00,1.57,-999.0,no,yes,no,300234063843680,SVPVHI,AOML,DANA,North
2017-10-17T00:00:00Z,1508198400,2017,0,0,290.0,290.0,80.3264,5.283,-999.00,1.71,-999.0,no,yes,no,300234063843680,SVPVHI,AOML,DANA,North
2017-10-17T03:00:00Z,1508209200,2017,3,0,290.125,290.125,80.3096,5.27,-999.00,1.94,-999.0,no,yes,no,300234063843680,SVPVHI,AOML,DANA,North
2017-10-17T06:00:00Z,1508220000,2017,6,0,290.25,290.25,80.3,5.1748,-999.00,2.86,-999.0,no,yes,no,300234063843680,SVPVHI,AOML,DANA,North
2017-10-17T09:00:00Z,1508230800,2017,9,0,290.375,290.375,80.3192,5.0494,-999.00,2.81,-999.0,no,yes,no,300234063843680,SVPVHI,AOML,DANA,North
2017-10-17T12:00:00Z,1508241600,2017,12,0,290.5,290.5,80.3446,5.0724,-999.00,3.4,-999.0,no,yes,no,300234063843680,SVPVHI,AOML,DANA,North
2017-10-17T15:00:00Z,1508252400,2017,15,0,290.625,290.625,80.3648,5.1048,-999.00,3.81,-999.0,no,yes,no,300234063843680,SVPVHI,AOML,DANA,North
2017-10-17T18:00:00Z,1508263200,2017,18,0,290.75,290.75,80.3788,5.1258,-999.00,4.31,-999.0,no,yes,no,300234063843680,SVPVHI,AOML,DANA,North
2017-10-17T21:00:00Z,1508274000,2017,21,0,290.875,290.875,80.3942,5.0922,-999.00,4.49,-999.0,no,yes,no,300234063843680,SVPVHI,AOML,DANA,North
2017-10-18T00:00:00Z,1508284800,2017,0,0,291.0,291.0,80.4058,5.1836,-999.00,4.79,-999.0,no,yes,no,300234063843680,SVPVHI,AOML,DANA,North
2017-10-18T03:00:00Z,1508295600,2017,3,0,291.125,291.125,80.403,5.1938,-999.00,4.75,-999.0,no,yes,no,300234063843680,SVPVHI,AOML,DANA,North
2017-10-18T06:00:00Z,1508306400,2017,6,0,291.25,291.25,80.3958,5.0644,-999.00,5.19,-999.0,no,yes,no,300234063843680,SVPVHI,AOML,DANA,North
2017-10-18T09:00:00Z,1508317200,2017,9,0,291.375,291.375,80.4076,4.8806,-999.00,5.44,-999.0,no,yes,no,300234063843680,SVPVHI,AOML,DANA,North
2017-10-18T12:00:00Z,1508328000,2017,12,0,291.5,291.5,80.4392,4.7692,-999.00,4.83,-999.0,no,yes,no,300234063843680,SVPVHI,AOML,DANA,North
2017-10-18T15:00:00Z,1508338800,2017,15,0,291.625,291.625,80.4678,4.618,-999.00,5.0,-999.0,no,yes,no,300234063843680,SVPVHI,AOML,DANA,North
2017-10-18T18:00:00Z,1508349600,2017,18,0,291.75,291.75,80.5012,4.492,-999.00,4.74,-999.0,no,yes,no,300234063843680,SVPVHI,AOML,DANA,North
2017-10-18T21:00:00Z,1508360400,2017,21,0,291.875,291.875,80.5316,4.5438,-999.00,4.06,-999.0,no,yes,no,300234063843680,SVPVHI,AOML,DANA,North
2017-10-19T00:00:00Z,1508371200,2017,0,0,292.0,292.0,80.5408,4.6538,-999.00,3.92,-999.0,no,yes,no,300234063843680,SVPVHI,AOML,DANA,North
2017-10-19T03:00:00Z,1508382000,2017,3,0,292.125,292.125,80.5472,4.7536,-999.00,3.93,-999.0,no,yes,no,300234063843680,SVPVHI,AOML,DANA,North
2017-10-19T06:00:00Z,1508392800,2017,6,0,292.25,292.25,80.5396,4.746,-999.00,4.29,-999.0,no,yes,no,300234063843680,SVPVHI,AOML,DANA,North